Theta_e
312 313 316 317 320 323 326 326 322 320 319 320 322 320 317 316 318 318 317 320 315 310 315 316 314 314 317 322 319 312 312 313 309 311 314 316 318 319 320 321 321 321 320 319 319 319 319 319 319 319 319 319 319 317 316 316 314 311 310 308 308 307 306 306 306 307 307 308 309 310 310 308 307 307 307 307 306 307 308 309 310 310 311 311 313 315
312 313 318 321 322 323 328 329 323 320 322 322 321 318 317 318 318 317 319 325 319 312 316 318 315 317 325 334 325 315 314 316 310 310 313 316 318 318 319 321 321 321 320 319 319 319 319 319 319 319 319 319 319 317 316 316 314 312 310 309 308 307 307 308 308 309 309 310 310 309 310 308 306 306 306 306 306 306 306 306 307 308 309 310 312 314
316 317 320 319 319 318 324 328 324 324 327 327 322 318 319 322 318 319 327 330 325 318 318 320 318 323 334 336 330 321 315 315 314 312 313 315 317 317 318 320 320 319 319 319 319 319 319 319 319 318 319 319 319 318 317 317 315 312 311 309 308 308 308 309 310 310 311 310 309 309 309 309 307 307 307 307 307 306 306 305 305 305 305 307 309 310
317 323 321 316 318 319 321 325 322 323 327 328 323 317 320 321 316 321 329 330 327 321 319 323 322 329 336 331 329 321 312 313 315 314 314 313 315 317 318 319 320 319 319 319 319 319 319 318 319 319 319 319 318 318 317 318 316 313 311 309 308 309 310 311 311 311 312 311 309 309 310 310 309 308 308 308 307 307 307 306 305 304 303 303 304 305
314 319 316 316 324 323 319 321 321 319 321 327 325 319 322 323 318 320 324 327 329 324 323 324 323 334 338 327 327 320 312 315 315 314 315 313 313 315 316 317 319 320 319 319 320 319 319 319 319 319 319 319 318 318 318 318 317 314 311 310 309 310 310 311 312 312 312 311 310 310 310 310 310 309 309 308 308 308 307 307 306 305 304 303 303 303
314 313 312 317 324 324 320 321 325 323 321 326 329 326 325 325 321 321 324 326 327 326 323 317 318 336 339 326 327 325 320 320 315 314 315 314 314 313 315 317 318 320 320 319 320 319 320 319 319 319 318 319 319 318 318 318 318 315 312 310 309 310 311 312 312 312 312 312 310 309 310 309 309 309 309 309 309 308 308 308 307 306 305 304 304 304
316 315 316 317 319 322 321 321 324 325 321 322 327 330 328 324 322 322 321 320 322 321 321 319 319 329 334 328 328 326 323 323 319 317 315 313 315 312 313 315 316 319 320 319 319 319 320 320 319 319 319 319 319 318 318 318 318 316 313 311 310 311 311 311 312 313 312 311 310 309 309 309 309 309 310 310 309 309 308 308 307 307 306 305 304 304
316 318 321 318 318 320 320 321 324 325 322 321 326 331 327 322 322 325 321 320 323 319 320 327 322 318 326 327 325 321 320 321 321 321 316 312 314 314 312 314 315 317 320 319 320 320 320 320 320 320 320 320 319 319 318 318 318 316 313 311 311 311 311 310 311 312 312 311 310 309 309 310 310 310 310 310 310 309 309 308 307 307 306 306 306 305
316 317 321 321 319 318 320 327 327 322 320 325 329 326 321 319 321 327 325 321 323 317 319 330 322 315 324 329 326 320 317 319 320 320 319 313 312 313 313 313 314 315 318 320 320 320 320 320 320 320 320 320 319 319 318 318 318 317 314 312 311 311 311 310 310 311 312 312 311 309 309 310 310 310 310 311 311 311 310 308 308 308 307 307 306 306
315 314 318 320 320 319 325 331 327 322 321 323 325 320 318 322 324 325 323 321 321 315 318 328 320 313 320 328 327 318 314 320 321 319 318 312 311 313 312 313 313 314 316 319 319 320 320 320 320 320 320 319 319 318 319 319 318 318 315 312 312 312 311 311 310 311 312 312 312 310 309 309 311 311 311 311 311 311 311 310 308 308 308 307 306 306
312 310 315 317 317 320 324 323 319 318 318 316 319 318 317 322 326 327 327 324 318 317 322 326 320 315 317 324 326 319 319 323 320 318 316 311 311 312 312 313 313 314 315 318 319 319 319 320 320 320 320 319 319 319 318 319 318 318 316 314 313 313 312 312 311 311 312 312 312 310 309 309 310 310 311 310 311 311 311 311 310 309 308 308 307 307
312 310 315 316 313 315 316 315 312 312 314 315 320 321 317 319 323 324 327 321 315 320 326 323 320 317 315 321 325 323 322 320 315 316 316 313 311 310 311 312 312 314 315 317 319 320 319 320 320 320 320 319 318 318 319 318 318 319 318 316 315 314 314 314 312 311 312 312 311 311 310 309 311 311 310 311 311 311 312 312 311 309 308 308 308 307
316 314 315 313 313 313 313 316 313 312 315 317 320 322 318 317 318 319 321 318 318 320 319 318 318 317 316 320 321 320 319 316 312 312 312 311 309 310 311 312 311 313 314 316 318 318 319 319 319 320 319 319 319 318 318 319 318 319 319 318 316 316 316 315 314 313 312 312 312 311 311 310 311 311 311 311 311 312 312 312 311 310 309 309 308 308
319 320 316 312 313 313 313 317 315 314 316 314 316 321 319 316 314 318 320 315 316 319 317 316 316 317 320 318 317 319 315 312 311 310 310 311 310 311 311 311 312 312 312 315 317 317 318 318 318 319 319 319 319 318 319 319 319 319 319 319 318 317 316 316 316 314 313 314 313 312 312 311 312 312 311 311 312 312 313 312 312 311 310 309 308 308
317 320 320 315 313 313 312 315 316 318 317 313 313 315 317 321 318 318 318 314 313 317 318 316 315 321 324 316 314 314 311 310 311 311 311 311 311 312 311 312 312 312 312 313 315 316 317 317 317 318 318 318 318 319 319 318 319 319 319 319 319 318 317 317 317 316 315 315 315 314 313 313 312 312 312 311 311 312 312 313 313 311 310 310 309 308
311 315 322 314 310 312 312 311 312 315 316 313 312 311 313 320 321 316 315 316 317 318 319 316 317 325 323 314 313 312 310 312 311 310 311 310 310 310 310 311 311 312 313 313 313 315 316 317 318 318 317 317 318 318 318 319 318 319 319 319 319 318 318 318 318 317 316 316 316 315 314 314 313 313 313 312 312 312 312 313 313 312 311 310 309 308
311 316 321 312 309 313 310 310 310 310 316 315 311 313 313 313 318 318 313 315 317 317 318 316 317 323 319 313 314 312 312 313 310 310 310 309 310 309 309 309 309 310 312 312 313 314 315 316 317 318 318 318 318 318 318 318 318 319 319 319 319 319 318 318 318 318 317 317 317 316 315 314 314 314 313 312 311 312 312 312 313 312 311 310 309 309
316 320 321 312 311 313 308 309 310 308 313 317 313 315 315 312 318 322 318 319 317 315 319 318 316 321 319 316 317 314 313 314 312 311 309 308 309 309 308 309 308 308 309 309 311 311 314 316 316 317 318 318 319 319 319 319 319 319 319 319 319 319 319 319 319 318 318 317 317 317 316 315 315 314 313 312 312 312 312 312 313 312 311 311 309 309
315 318 321 316 311 312 311 310 312 311 310 313 314 312 313 316 320 321 317 318 316 314 319 320 316 316 318 319 318 314 313 314 313 312 311 310 309 308 308 308 307 308 308 308 308 308 311 313 315 316 317 318 319 319 319 319 319 319 319 319 319 319 319 319 319 319 318 318 317 317 317 316 315 314 314 313 312 312 311 312 312 312 312 311 310 309
314 314 319 318 310 310 316 315 318 319 313 311 313 312 316 319 318 316 314 314 315 315 319 319 314 315 319 320 317 314 314 315 313 313 312 309 308 307 307 307 307 308 308 308 308 308 308 309 311 314 316 318 318 319 320 320 319 319 319 320 319 319 319 319 319 319 319 318 318 318 317 316 316 316 315 314 312 311 311 311 312 312 312 311 310 309
315 311 316 323 314 309 316 318 317 319 315 314 316 315 316 316 313 313 312 311 313 316 320 316 314 320 322 318 314 314 315 315 313 314 312 307 307 308 306 307 308 308 308 308 308 308 309 308 309 310 313 316 317 318 319 320 320 321 320 320 320 319 320 319 319 320 319 319 318 318 317 316 316 316 316 315 313 311 311 311 312 312 312 311 310 309
315 314 318 323 318 312 314 315 312 313 315 317 315 312 312 313 313 311 312 314 313 314 318 315 314 322 319 313 315 314 313 313 310 311 310 307 307 306 306 307 308 308 308 308 308 308 309 309 308 308 309 312 315 316 317 319 319 320 321 320 320 320 320 320 320 320 319 319 319 318 318 316 316 316 317 317 314 312 311 310 311 312 311 311 310 310
315 319 319 318 318 315 311 310 308 307 312 314 312 312 313 313 314 314 317 319 314 311 314 312 314 321 317 314 316 313 310 309 307 307 308 306 306 306 306 308 308 309 309 308 308 308 308 308 308 309 309 311 314 315 316 317 318 319 320 320 320 320 320 320 320 320 320 319 319 319 318 317 317 317 318 317 315 313 311 310 311 311 311 310 310 310
314 317 316 317 321 318 313 312 309 308 311 311 309 312 312 310 313 318 320 319 313 313 316 313 315 320 318 315 312 307 307 308 306 307 307 306 307 307 307 309 309 309 309 309 309 308 308 308 308 309 310 310 313 315 315 317 318 318 319 319 320 321 320 320 320 319 320 319 319 319 319 319 319 318 318 318 317 314 312 311 311 311 311 310 310 310
312 316 316 315 316 315 315 317 314 315 316 311 308 309 309 309 311 314 315 312 311 314 315 314 318 320 316 313 310 306 307 308 305 305 307 306 307 308 308 309 309 309 309 309 309 309 309 309 309 309 310 310 311 313 314 315 316 318 319 319 320 320 320 321 320 320 320 319 319 319 319 320 320 320 319 319 318 316 313 312 312 311 311 311 311 311
309 314 315 313 313 312 313 315 316 319 317 310 308 307 306 308 309 311 312 310 312 314 312 314 320 318 312 311 311 309 308 308 306 305 307 307 307 308 309 309 309 309 309 308 309 309 309 309 309 309 309 309 310 311 311 313 314 316 317 318 320 320 320 321 320 320 320 319 319 318 319 320 320 320 320 319 319 317 314 312 312 312 311 311 311 310
312 312 313 314 314 311 310 312 315 315 312 310 310 307 307 309 310 312 311 310 314 316 312 312 316 313 309 309 310 310 308 308 308 306 307 308 307 308 309 308 309 308 308 308 308 308 308 308 308 308 308 308 308 308 309 309 310 312 314 316 317 319 320 321 321 321 320 319 318 318 318 319 319 319 319 319 320 319 315 313 312 312 311 311 310 308
313 311 312 313 313 312 310 312 313 311 309 310 310 307 308 311 311 311 310 311 313 311 308 314 316 312 310 308 309 311 309 307 308 306 306 308 307 308 308 308 308 308 308 308 307 308 308 308 307 307 307 307 307 307 307 307 307 308 310 312 314 317 319 321 322 322 321 320 319 318 318 319 320 319 317 318 320 319 316 313 312 312 311 310 309 307
308 309 311 310 311 313 311 309 310 309 308 308 309 308 309 311 310 309 310 312 312 308 307 313 315 312 309 307 307 308 307 307 307 306 307 307 307 308 308 307 307 307 307 307 307 308 307 307 307 307 307 307 307 307 307 307 307 307 307 309 310 313 315 318 320 321 322 321 320 319 319 319 321 320 316 316 320 319 315 312 312 312 310 309 309 308
307 311 312 308 308 311 309 308 308 307 307 307 307 308 308 310 311 310 310 311 310 308 309 310 309 310 310 307 307 307 305 305 307 307 307 307 307 308 307 307 308 307 307 307 307 307 307 307 307 307 307 307 306 307 306 306 307 306 306 307 308 310 312 313 316 318 320 321 321 321 321 320 321 321 317 317 320 319 314 312 312 311 310 310 309 307
306 311 312 308 307 311 311 310 307 306 307 306 305 307 307 308 309 307 308 309 307 307 309 307 305 309 309 305 305 306 306 307 307 307 307 307 307 308 307 307 307 307 307 307 307 307 307 307 307 307 307 307 306 306 306 305 306 305 305 306 307 308 309 310 312 315 317 319 320 321 322 321 321 322 319 318 319 318 313 311 311 311 310 309 307 306
306 308 311 308 307 309 311 309 307 307 307 305 304 305 306 308 309 308 308 309 309 309 308 305 306 310 308 303 304 306 306 306 306 306 307 307 307 307 307 307 307 307 307 307 307 307 307 307 307 307 307 307 306 306 306 305 305 304 304 304 306 307 309 310 310 312 314 316 318 320 321 322 322 322 320 319 318 316 312 311 311 310 310 308 306 305
307 306 308 308 306 308 310 308 308 310 307 306 309 308 306 308 309 307 307 308 310 311 310 309 311 314 309 305 307 308 306 305 305 305 306 307 307 307 307 306 306 306 306 306 306 307 307 306 306 306 306 305 305 305 305 305 304 304 303 303 304 305 307 309 310 311 313 314 317 319 320 321 322 321 319 318 316 314 311 311 311 311 309 307 305 304
308 305 307 308 305 307 310 307 307 308 306 309 314 311 307 309 308 305 307 310 310 310 310 312 313 312 309 308 310 309 307 305 304 303 305 307 307 306 304 303 303 303 303 304 304 304 304 305 305 304 304 304 303 303 303 303 303 303 303 303 303 303 304 307 309 312 312 313 316 318 320 321 321 321 319 316 314 312 311 312 312 310 308 306 305 304
305 304 306 307 305 306 307 305 305 307 305 307 311 308 306 310 312 309 310 311 309 309 310 311 311 309 307 307 306 306 305 304 303 303 305 307 306 304 302 302 302 302 302 302 302 302 302 302 302 302 302 302 302 302 301 302 302 303 303 303 303 303 303 304 307 311 312 313 315 318 319 320 321 319 318 315 313 312 312 312 311 309 308 306 305 304
303 304 303 305 305 304 305 305 305 305 304 306 308 307 305 307 309 308 308 308 307 308 311 312 311 307 304 304 305 305 304 304 303 303 304 306 305 302 302 302 301 301 302 302 302 302 302 302 302 302 302 302 301 301 301 302 302 302 302 303 303 303 303 303 305 309 312 314 315 317 319 320 319 317 316 314 313 312 312 312 310 308 306 305 304 304
302 304 303 303 305 304 305 308 306 304 305 306 305 305 304 304 304 304 306 307 306 306 307 310 312 308 304 304 305 305 304 303 302 302 304 306 304 302 302 302 302 301 301 301 302 303 303 303 303 303 303 302 302 301 301 301 302 302 302 303 303 303 303 304 304 306 311 314 315 317 318 319 319 317 315 314 313 312 312 311 309 306 303 303 304 305
302 303 304 304 305 303 304 306 305 304 306 307 305 304 303 302 301 301 303 306 306 304 304 307 311 308 303 303 304 304 303 302 302 303 303 303 302 302 302 302 301 301 302 301 302 302 303 304 304 304 303 303 302 301 301 301 301 301 302 303 303 303 304 305 306 307 310 314 315 316 317 318 318 317 314 312 311 311 312 309 306 303 303 304 305 305
304 304 303 303 304 304 303 304 304 304 306 307 306 304 302 301 300 301 304 307 305 302 302 304 305 304 302 302 303 303 303 303 303 303 301 301 302 302 302 301 301 301 301 301 302 303 303 304 304 304 304 303 302 301 300 300 300 300 301 302 303 304 303 305 307 308 310 314 315 316 317 317 317 315 312 309 310 311 310 307 304 303 304 305 305 304
306 307 305 303 304 305 304 304 305 304 304 305 305 304 302 302 303 304 307 307 303 300 301 301 301 302 303 303 304 304 305 304 303 301 301 302 302 301 301 301 301 301 301 301 302 303 304 304 304 303 302 301 300 300 300 300 300 300 302 303 304 304 304 304 306 308 311 314 315 316 317 316 315 313 311 310 310 309 307 304 303 304 305 304 303 301
305 305 304 304 305 305 305 305 306 305 304 305 305 303 301 302 305 306 307 305 301 300 301 301 301 302 303 303 303 304 304 303 301 301 301 301 301 300 301 300 300 301 301 301 302 303 303 303 302 301 300 300 300 300 300 301 301 301 303 304 304 305 304 305 307 309 311 313 315 315 315 315 313 312 311 311 309 306 304 304 304 304 302 300 298 297
303 302 302 303 304 304 305 305 304 304 303 302 303 302 300 301 304 306 304 301 300 301 301 301 301 302 302 302 302 303 302 301 302 302 301 301 301 301 301 301 301 301 301 302 303 302 302 302 301 300 300 300 301 301 301 302 303 303 304 305 305 305 305 306 308 309 311 312 314 313 313 312 311 310 309 308 305 303 304 304 301 299 298 296 296 296
300 300 302 303 302 302 303 303 303 303 302 300 300 301 300 301 302 302 300 300 300 301 302 302 302 302 302 302 302 302 302 301 301 301 300 301 301 301 301 302 302 302 302 302 302 302 302 302 301 301 301 301 302 303 303 303 304 304 304 305 305 305 306 307 308 310 311 312 313 312 311 311 310 308 307 306 304 302 302 300 297 296 296 296 296 296
300 300 301 302 301 300 301 303 303 302 300 299 300 300 300 300 299 299 300 300 301 301 301 302 302 301 302 303 302 302 301 301 300 300 300 300 301 301 302 302 303 303 303 302 302 302 302 302 301 301 301 301 302 303 303 304 304 304 305 305 305 306 306 308 309 310 311 312 312 311 310 309 308 306 305 303 302 300 298 297 297 298 297 297 296 296
300 300 300 301 301 300 300 302 302 299 298 298 299 299 299 298 298 299 300 300 300 299 299 300 300 300 300 301 301 301 301 300 300 300 300 300 301 301 302 302 303 303 302 302 302 302 302 301 301 301 301 302 303 304 304 304 305 305 305 305 306 306 306 308 309 310 311 311 310 309 308 306 304 304 302 300 299 298 298 298 298 298 298 297 297 296
299 298 298 300 301 299 298 299 298 297 298 298 298 298 298 298 299 300 300 299 299 299 299 299 299 299 300 300 300 300 300 300 301 300 300 301 301 301 302 303 303 303 302 302 302 302 302 302 301 302 302 302 304 304 304 304 305 305 305 305 306 306 306 308 310 310 309 309 308 307 305 303 301 300 299 298 298 298 298 298 298 298 298 297 296 296
298 296 296 298 299 299 299 300 298 297 298 297 297 298 298 298 299 300 299 298 299 298 298 299 299 299 299 299 299 299 300 300 300 300 300 300 301 302 302 303 303 303 302 302 302 302 302 302 302 302 302 303 304 305 305 304 304 304 305 305 305 306 307 309 309 308 308 307 305 303 301 300 299 298 298 298 298 298 298 298 298 298 297 297 296 295
297 296 297 298 298 298 299 299 297 297 297 297 297 298 297 298 299 299 298 299 299 298 298 298 298 298 298 298 299 299 299 300 300 300 300 300 301 302 302 303 303 303 302 302 302 302 302 302 302 302 303 304 305 304 304 304 304 304 305 305 306 307 307 307 308 308 307 304 301 299 299 299 298 298 298 298 298 298 298 298 298 297 296 295 295 294
296 296 297 298 298 297 297 297 296 297 297 297 297 297 297 298 298 298 298 298 298 298 298 298 298 298 298 298 299 300 300 300 300 300 300 300 301 302 302 302 303 302 302 302 302 302 302 302 302 303 304 304 304 303 304 304 304 304 304 305 306 307 307 306 305 305 303 301 299 298 299 298 298 298 298 298 298 298 298 298 298 296 295 294 294 294
297 297 297 297 297 297 297 296 296 296 296 296 297 297 297 298 298 298 298 298 298 298 298 298 298 298 299 299 300 300 300 300 300 300 300 301 302 302 302 302 302 302 302 302 302 302 302 302 302 303 304 304 303 303 303 303 303 303 303 303 304 305 303 302 301 301 300 299 299 299 299 298 299 298 298 298 298 298 299 298 297 294 294 294 295 295
296 297 297 297 297 297 297 296 296 296 296 296 296 297 297 298 298 298 298 298 298 298 298 299 299 299 300 300 300 300 300 300 300 301 301 301 301 302 302 302 302 302 301 301 302 302 302 302 303 303 303 303 303 303 303 302 302 301 300 301 302 302 301 300 301 300 300 299 299 299 299 299 299 298 298 298 299 299 299 298 295 294 294 295 295 295
Wind_Speed
2 1 2 4 6 7 7 6 6 5 4 4 4 4 2 1 3 5 5 6 1 3 3 4 3 4 6 6 8 8 6 5 15 15 17 22 25 28 30 32 35 39 40 40 40 38 36 34 32 30 27 25 22 19 17 16 14 13 12 12 13 15 15 14 13 12 12 11 10 9 7 6 5 4 3 2 1 2 4 6 8 10 11 11 10 10
2 1 5 8 9 7 5 4 5 4 4 4 3 2 2 0 3 4 4 6 3 4 3 3 2 3 6 6 7 7 6 4 8 14 20 26 29 31 32 34 35 36 35 37 39 38 37 36 34 32 29 27 24 22 20 18 15 14 14 13 14 15 15 14 12 12 12 10 9 9 8 6 6 6 4 3 2 1 2 4 7 10 12 12 12 12
4 4 10 9 6 3 1 3 5 5 5 4 2 1 2 2 3 6 5 6 4 3 3 4 1 4 7 6 7 6 5 7 7 9 17 26 29 30 33 34 32 30 31 36 40 40 39 38 36 34 31 29 26 23 22 19 16 16 15 15 15 15 15 15 14 13 11 10 9 8 7 6 7 6 5 4 4 4 3 2 1 4 7 10 12 13
2 6 8 3 6 4 0 2 5 4 3 3 3 2 2 3 1 3 5 6 5 2 2 1 3 5 6 5 7 8 8 9 11 11 11 17 25 30 34 35 33 33 34 37 41 42 41 39 37 35 34 32 28 26 24 22 20 19 17 16 17 15 15 15 15 13 12 11 10 9 7 7 6 4 4 4 5 6 6 5 4 3 2 3 7 11
6 9 5 4 6 5 2 0 4 4 1 2 2 4 3 3 3 4 4 5 5 4 2 4 5 5 5 5 6 6 5 7 11 13 13 13 18 27 33 32 32 36 38 41 43 44 43 41 39 37 36 34 31 29 27 25 24 21 18 18 18 17 16 16 15 14 14 13 12 10 10 9 7 6 5 3 4 6 6 6 6 6 6 4 2 4
8 8 3 1 2 4 5 4 3 6 2 4 3 6 7 5 4 4 3 5 5 4 4 3 2 5 5 4 7 5 5 6 7 8 14 17 14 19 28 31 33 35 38 42 45 46 44 42 41 39 38 36 34 33 30 28 26 22 19 20 20 19 17 16 15 16 16 15 13 11 10 9 6 7 7 4 3 5 6 7 7 7 7 7 5 2
5 5 2 2 4 4 5 5 4 6 3 2 5 7 6 5 4 2 1 3 2 3 4 3 3 5 6 4 7 5 5 8 8 6 12 20 19 16 22 30 35 38 39 40 41 44 44 42 42 41 40 39 38 36 33 30 27 23 21 21 22 21 18 17 17 17 17 16 13 9 7 7 4 6 7 5 3 4 4 5 6 6 7 7 7 6
3 6 5 1 1 4 4 4 5 7 7 3 5 6 6 5 5 5 5 4 3 3 4 4 4 2 4 5 7 4 5 8 9 9 10 18 25 22 21 27 34 40 43 42 42 44 44 43 43 42 41 41 40 37 34 32 29 25 24 23 23 22 20 17 18 19 18 17 14 10 8 7 6 6 7 5 3 3 3 3 4 5 5 6 7 7
1 3 4 1 2 3 5 6 7 8 4 6 6 6 4 2 4 5 6 3 1 1 3 5 2 1 4 6 6 4 3 7 9 10 10 15 25 25 21 25 31 37 42 44 45 45 45 44 43 42 41 41 41 39 36 34 31 27 25 25 24 24 22 19 19 20 20 18 15 12 10 9 8 8 8 7 4 3 2 2 2 3 3 4 6 7
3 5 5 4 4 4 7 5 8 10 4 4 5 5 3 4 4 4 5 4 2 2 4 6 1 2 4 6 5 3 2 6 8 9 10 16 24 24 21 22 28 34 40 44 46 45 44 42 41 41 41 41 42 40 38 35 32 29 27 27 26 25 24 21 20 21 21 20 18 15 13 11 10 11 10 9 7 5 4 4 3 2 2 3 4 5
5 4 3 4 5 6 6 4 5 8 5 2 4 4 5 5 4 3 3 4 3 1 6 7 4 4 1 6 4 2 4 5 5 7 9 15 23 25 23 21 25 32 38 43 46 46 43 41 41 42 42 42 42 41 39 36 33 30 29 29 27 26 25 23 22 23 23 23 21 18 15 13 12 12 11 9 8 7 6 6 5 4 3 2 3 4
6 2 2 3 6 4 3 1 1 1 2 4 4 4 2 3 4 4 4 3 1 4 6 6 4 5 1 5 5 5 6 5 4 8 10 13 21 26 23 16 20 29 37 42 44 45 43 42 43 43 43 42 41 41 40 38 36 33 31 31 29 28 27 25 24 24 25 25 24 21 18 14 13 12 11 9 8 8 7 7 7 7 5 4 3 3
4 4 3 4 4 4 4 1 3 5 5 5 4 5 3 2 3 2 3 1 2 5 5 4 3 2 3 7 6 6 8 7 6 7 8 11 17 23 21 13 11 20 31 39 42 42 42 43 43 43 43 42 40 42 41 40 39 36 34 33 32 31 28 26 25 26 27 27 26 23 19 16 14 13 12 10 9 9 9 9 9 9 7 6 5 4
3 6 5 3 3 4 6 3 1 2 1 3 4 4 3 1 2 2 3 1 3 5 4 3 2 1 3 4 5 6 8 8 6 5 10 17 22 26 23 13 3 9 18 29 37 39 39 39 40 41 41 40 40 42 42 41 40 39 37 36 35 33 30 28 27 27 28 28 26 24 21 18 16 15 14 12 11 10 11 11 11 10 8 7 6 5
1 4 3 1 2 1 4 5 6 5 3 3 3 4 4 4 3 3 3 2 3 4 3 3 1 2 2 2 5 6 5 10 9 12 23 29 31 33 33 27 17 5 8 16 26 34 36 35 36 38 37 37 39 40 41 42 41 41 40 38 37 35 33 30 28 28 28 28 27 24 22 19 17 16 15 13 12 11 12 12 12 11 10 9 8 7
2 5 6 3 2 2 3 4 7 7 2 3 2 4 2 4 5 2 2 5 3 1 2 2 2 3 4 2 6 4 8 11 11 17 25 26 29 36 36 33 32 23 10 5 14 24 31 34 35 36 35 36 36 37 40 42 41 42 42 40 39 37 35 32 30 28 28 28 28 25 22 20 19 18 17 15 13 13 13 13 13 12 12 11 10 9
2 4 6 3 3 1 1 2 2 4 2 1 1 2 4 3 6 4 1 0 3 1 3 1 2 5 2 2 6 6 9 9 10 15 20 20 26 32 30 30 34 34 28 18 6 5 17 27 33 35 36 36 36 38 41 41 39 40 41 41 41 39 37 35 32 29 28 28 29 27 23 21 20 19 18 16 14 14 13 14 14 13 13 12 12 11
3 3 6 1 0 3 2 5 5 3 3 4 2 4 3 1 4 3 1 2 4 1 4 1 3 4 1 1 5 7 9 8 8 10 14 20 25 24 24 28 31 31 32 30 25 19 8 5 18 30 36 37 37 38 40 40 39 40 41 41 41 40 39 37 34 31 29 28 28 28 25 23 21 20 19 17 15 14 14 15 15 15 15 15 14 13
3 2 7 2 2 5 4 6 3 7 5 4 4 2 2 1 1 1 1 1 0 2 3 3 3 2 3 4 1 4 5 4 6 7 9 13 17 18 21 26 28 27 28 28 27 26 23 17 7 11 24 33 36 37 37 38 40 42 43 43 42 41 39 37 34 32 30 29 28 27 26 24 23 22 21 18 15 15 16 16 17 16 16 16 15 14
2 2 5 4 2 3 5 2 2 4 6 4 3 3 2 2 3 0 1 2 2 2 2 3 3 2 5 6 6 7 6 6 6 6 6 6 10 15 20 24 25 25 25 24 24 23 23 22 19 13 7 16 27 33 36 37 39 41 43 44 43 42 41 39 37 34 32 30 28 27 26 26 25 24 23 20 17 17 17 17 17 17 17 17 17 15
2 2 3 5 4 2 2 0 4 3 0 2 3 3 2 1 2 1 0 2 2 2 2 1 3 4 5 3 6 7 6 6 6 6 5 7 10 13 17 20 21 21 21 22 22 21 20 20 19 18 15 11 12 21 29 33 37 39 41 43 44 43 43 42 39 36 34 32 30 29 27 27 27 26 25 22 19 19 18 18 18 18 18 18 17 16
1 2 2 3 4 2 3 4 4 4 4 3 1 1 2 1 2 2 2 2 1 2 3 3 2 6 5 2 0 3 5 5 6 7 6 6 10 13 15 18 20 20 20 19 20 19 19 18 17 16 15 13 12 11 16 23 29 35 39 41 42 43 44 43 41 39 36 34 33 31 29 28 28 28 28 25 22 21 20 19 19 18 18 18 17 17
2 3 2 2 4 4 6 7 5 2 3 6 2 1 3 2 4 4 3 3 1 1 2 3 1 5 5 3 4 3 3 3 3 5 6 8 11 14 17 21 22 22 20 18 18 17 15 15 14 13 11 9 10 11 12 16 21 27 33 37 40 43 44 44 43 41 37 35 36 35 32 30 29 30 30 27 25 23 22 21 20 19 18 18 18 17
2 2 2 2 4 4 6 5 3 2 5 6 2 2 4 3 4 5 4 3 1 2 1 2 2 5 5 5 5 4 3 3 5 9 10 12 14 17 20 23 23 22 20 18 16 14 12 12 13 13 13 11 10 10 10 13 18 22 26 31 36 41 43 44 43 41 38 36 36 37 37 35 33 32 32 30 26 24 23 22 20 19 19 19 18 18
1 0 2 2 3 5 7 5 4 5 3 3 1 2 3 3 5 3 1 3 1 3 3 4 4 5 4 4 6 6 7 9 11 13 11 12 16 18 20 21 21 20 19 17 15 13 12 13 13 13 13 13 12 11 10 11 14 19 23 27 31 36 40 43 43 42 40 38 36 38 39 39 38 36 34 31 27 25 24 22 21 20 20 19 19 19
1 1 2 2 2 3 2 2 3 3 2 1 2 2 1 2 4 1 1 3 1 3 3 4 4 5 4 4 7 6 5 8 11 11 11 12 14 15 17 18 18 18 18 16 15 13 12 13 13 12 12 12 12 12 13 13 13 15 18 23 28 32 36 39 41 42 42 40 39 40 41 40 40 37 35 32 28 25 25 23 21 21 20 19 19 19
2 1 1 5 5 6 6 6 5 3 1 3 2 3 2 1 3 3 3 2 3 3 2 4 5 5 6 4 5 6 5 4 5 7 10 11 13 14 15 16 16 16 16 15 14 12 11 11 12 12 13 13 13 14 14 15 15 15 15 17 21 27 32 36 38 41 44 43 41 41 42 43 40 37 34 33 30 26 25 23 21 20 20 19 19 19
4 2 2 5 5 7 7 7 6 3 4 5 4 3 5 4 4 5 3 4 4 3 5 6 5 5 6 3 4 5 2 0 1 2 5 8 11 12 12 12 13 13 13 12 12 12 11 11 12 12 13 14 15 15 15 16 15 15 15 14 14 17 24 31 36 40 43 45 44 43 44 44 42 38 34 34 33 29 25 22 20 20 20 19 18 18
4 2 3 3 5 7 6 6 6 3 4 5 5 6 6 6 6 6 6 6 6 5 8 7 6 7 6 3 4 5 3 3 2 2 3 6 8 8 9 10 11 11 11 11 11 11 11 11 12 13 13 14 14 15 16 16 17 17 16 15 14 13 15 21 30 37 41 44 45 46 46 45 43 40 37 36 36 31 25 22 20 20 20 19 18 17
2 2 3 1 4 6 6 6 5 4 5 4 5 7 7 7 8 8 7 6 8 9 10 6 6 7 6 5 5 3 2 3 1 3 5 8 9 7 7 9 9 10 10 10 10 11 11 12 13 14 14 15 15 16 16 17 18 18 17 17 16 15 14 15 21 28 35 40 43 45 47 46 45 44 42 39 37 32 26 22 21 20 19 18 16 15
2 2 2 3 3 6 6 5 4 5 7 7 7 6 5 6 7 6 4 4 5 8 8 4 4 6 5 6 5 3 2 1 4 6 7 8 8 6 6 7 8 9 10 10 10 10 11 13 14 15 16 17 18 18 18 19 19 19 18 17 17 18 18 16 17 21 26 33 38 42 45 46 46 47 46 42 37 33 28 25 23 22 19 17 15 14
2 2 2 4 3 6 4 4 6 5 5 7 7 6 6 7 6 4 4 5 6 6 4 2 3 5 5 5 3 3 4 4 4 5 5 5 4 3 5 8 9 10 11 12 12 13 14 14 16 17 18 19 21 22 23 23 23 22 20 19 18 19 20 20 20 19 21 26 32 38 43 45 46 47 46 42 38 34 30 27 25 22 19 18 17 15
3 2 2 0 3 6 4 4 4 4 4 8 7 9 10 9 7 4 3 5 7 7 5 4 6 5 5 5 3 3 3 3 4 5 4 3 1 2 6 8 10 12 13 15 16 17 17 18 19 20 22 23 24 25 26 27 27 27 25 23 21 21 21 22 22 21 22 24 28 34 39 42 45 45 41 37 34 31 28 27 24 21 20 19 17 15
3 4 3 3 3 6 4 1 2 1 6 8 5 8 11 10 9 7 5 7 7 4 4 4 4 4 5 6 6 6 5 4 4 5 4 4 4 1 8 10 13 15 16 17 18 19 21 22 23 24 24 25 26 27 28 29 29 30 29 27 25 23 23 24 24 23 23 25 28 32 36 40 43 44 40 36 33 31 28 26 23 21 19 18 16 16
3 4 3 2 3 4 2 2 1 6 7 5 2 3 6 7 9 8 4 5 5 3 3 5 5 6 7 8 8 8 5 3 5 6 6 8 6 5 10 12 14 16 17 19 20 20 22 23 24 26 26 26 27 28 28 29 29 30 31 30 28 26 24 25 26 25 24 25 29 32 35 39 41 41 40 38 36 33 29 25 22 20 18 16 16 17
5 3 2 1 2 2 0 3 5 6 4 4 4 2 2 1 4 4 2 5 4 5 5 6 5 6 8 9 9 7 5 6 7 8 10 11 7 8 12 15 17 18 19 19 20 21 22 23 24 25 26 26 28 29 29 29 29 29 31 31 31 28 25 26 27 26 25 26 30 34 37 38 39 39 38 37 35 32 29 25 21 18 17 16 17 16
5 3 2 2 3 2 3 3 3 4 6 6 4 2 1 1 1 2 3 6 5 3 4 5 4 5 6 8 9 7 6 6 6 7 10 12 10 13 16 18 19 20 21 21 21 22 23 23 24 25 26 27 29 30 31 31 31 32 32 32 32 30 27 27 28 27 26 27 31 36 38 39 41 39 37 35 31 27 25 22 19 17 16 16 16 15
3 4 4 3 2 2 2 4 3 3 5 5 4 4 3 4 6 5 3 2 5 3 3 5 4 5 7 8 9 7 4 2 4 6 7 10 13 17 19 22 23 23 23 23 23 25 25 25 26 26 28 30 31 32 33 33 34 34 34 33 32 31 29 28 30 29 27 28 31 35 38 40 40 37 34 31 28 25 23 20 18 16 15 15 15 14
3 0 3 3 2 1 3 4 3 3 5 5 5 7 8 11 9 1 4 2 4 3 3 4 6 7 9 10 9 5 1 3 4 7 11 15 18 20 22 25 26 26 26 26 25 26 26 27 28 30 32 34 35 34 34 35 36 36 36 34 33 32 31 30 31 30 29 30 32 35 38 38 35 33 30 28 28 28 25 21 17 16 16 15 13 12
5 4 3 2 4 2 2 3 3 2 3 3 4 7 10 13 10 3 1 4 6 6 6 7 10 11 10 10 7 4 2 5 8 13 19 20 22 25 26 27 28 28 29 29 27 26 27 28 31 34 35 37 38 37 35 36 36 36 37 35 33 33 33 30 30 30 29 31 33 35 37 35 33 32 28 27 29 27 22 19 17 16 15 13 11 11
3 3 2 1 3 3 3 3 3 2 3 3 3 7 10 9 7 3 3 5 7 11 11 8 10 11 10 10 9 7 10 15 18 22 23 23 26 29 29 29 30 29 29 29 28 27 28 31 34 36 38 39 39 38 36 34 33 35 35 34 33 34 33 30 28 27 28 32 36 37 37 36 34 32 29 29 28 24 20 18 16 14 12 11 10 9
2 2 3 0 1 2 2 2 3 3 2 3 3 5 7 4 2 2 5 9 11 11 12 12 13 13 14 16 16 16 19 23 24 26 27 27 29 31 30 30 30 29 29 29 28 29 31 34 38 40 41 40 38 37 33 29 29 31 31 32 33 33 29 26 26 25 26 32 37 38 37 36 34 32 31 30 26 21 19 16 12 10 9 7 6 4
1 2 3 2 1 1 1 1 1 2 2 4 3 4 4 2 3 8 11 14 13 12 12 13 14 14 16 18 19 20 22 24 25 28 29 30 30 30 31 30 28 29 30 29 30 32 34 38 42 43 43 40 36 34 29 25 27 29 29 32 33 30 26 25 25 24 25 32 37 37 37 37 34 32 32 28 22 18 17 14 11 8 5 3 2 1
1 1 1 2 1 0 1 0 2 3 2 1 1 1 3 7 13 15 12 10 11 12 12 13 14 16 17 19 20 22 24 26 28 29 30 31 31 30 30 29 28 29 30 31 33 35 37 41 44 43 41 38 34 30 25 24 26 29 30 31 30 27 26 25 25 24 26 33 36 37 38 38 36 32 28 24 19 17 16 14 10 7 5 3 1 2
2 2 3 3 3 2 3 5 6 6 6 3 3 8 13 16 17 14 9 8 11 12 12 14 16 17 17 20 22 25 27 30 30 30 31 33 32 31 29 29 29 29 30 33 35 37 39 42 40 38 38 35 31 28 25 24 26 30 32 30 28 27 27 25 24 25 29 34 37 39 39 35 32 27 23 20 18 17 15 12 9 7 5 2 1 2
6 5 1 2 3 4 4 7 9 10 10 11 14 17 19 19 14 9 8 12 14 15 15 16 18 19 19 21 24 27 30 31 31 31 31 31 32 31 30 29 30 30 31 33 36 38 39 37 34 34 35 33 30 26 24 23 25 29 31 30 27 27 27 24 24 27 32 37 39 38 34 29 27 25 22 21 18 15 13 11 8 6 3 2 1 3
5 3 1 1 3 5 4 4 6 10 16 21 24 22 19 15 12 11 13 17 17 17 18 19 20 22 23 24 27 30 31 32 32 33 32 31 32 32 30 30 31 31 32 34 37 37 35 32 31 32 33 32 30 25 22 23 25 28 30 29 28 27 24 24 28 33 37 38 36 33 31 28 27 26 24 21 18 14 11 9 6 4 2 1 1 4
3 3 2 3 4 4 5 7 13 21 26 25 21 17 14 11 12 14 16 17 17 19 22 23 24 25 26 27 29 30 31 32 33 34 34 33 32 31 30 30 31 32 34 36 37 34 31 30 32 32 32 30 26 22 22 25 27 26 26 26 26 25 24 29 37 40 40 37 34 32 30 28 26 25 22 19 15 13 10 7 5 4 3 3 4 5
8 5 4 3 4 5 6 9 15 18 19 17 14 13 13 12 13 16 18 18 21 25 27 27 28 28 28 28 27 27 28 30 30 31 32 32 31 30 30 29 31 33 35 36 34 32 30 31 32 31 29 25 21 21 23 23 21 20 19 21 24 25 29 36 40 41 39 36 33 31 28 25 23 22 19 16 14 12 9 6 5 5 5 6 6 6
7 4 4 4 4 5 6 9 11 8 7 15 21 20 18 17 17 20 23 25 27 29 29 30 30 29 27 26 24 25 27 28 28 28 28 29 30 29 28 29 32 34 35 34 33 31 31 31 30 28 24 21 20 20 15 9 10 12 16 20 23 28 36 41 40 37 36 34 32 29 26 24 21 19 17 15 13 10 8 5 6 6 7 7 6 8
7 6 6 4 5 7 13 21 21 12 11 21 28 26 23 22 22 24 27 29 30 30 28 27 27 27 27 26 25 25 27 28 27 27 27 28 28 28 28 30 32 33 33 33 31 30 30 29 24 20 18 18 20 17 10 10 10 16 27 32 34 40 43 41 36 33 32 32 31 28 25 23 21 19 17 15 12 9 6 5 7 8 8 7 8 8
Wind_Direction
71 360 284 224 231 236 235 206 184 179 158 140 119 119 104 92 300 287 274 300 46 116 291 241 222 288 266 278 288 297 340 231 204 194 199 201 199 198 197 197 197 198 199 196 193 195 197 199 201 202 204 207 207 205 204 201 201 204 200 189 179 177 180 183 180 179 178 170 157 151 150 141 133 141 154 165 212 264 273 272 275 275 271 267 255 249
44 308 254 229 223 223 227 198 151 119 100 100 112 78 358 276 272 276 261 307 353 120 299 280 184 285 274 268 286 303 329 291 208 183 189 197 201 203 202 202 201 200 199 195 194 195 197 199 201 203 205 208 209 207 206 204 202 204 200 190 183 180 180 181 179 178 175 159 138 136 138 128 120 120 116 108 94 66 280 271 269 268 268 268 263 259
359 275 259 238 203 170 130 114 110 98 89 79 94 66 343 271 283 300 287 310 1 105 289 322 55 277 275 267 285 293 265 267 265 216 201 201 203 205 205 205 202 198 198 196 195 196 199 200 202 204 208 211 213 212 209 205 204 206 197 188 188 185 179 176 176 179 172 148 127 126 136 142 139 127 115 108 91 78 72 61 268 264 261 257 255 253
315 252 251 194 135 139 66 81 101 102 88 84 112 117 281 272 290 297 297 317 353 59 216 51 37 301 296 301 285 275 261 270 279 270 242 214 211 213 210 208 203 197 197 197 197 199 199 200 203 207 210 210 210 212 211 207 207 206 197 192 192 186 179 177 178 179 170 150 138 141 155 165 165 155 135 116 97 85 75 70 71 52 6 273 255 245
254 254 252 103 126 160 185 80 119 145 232 295 177 159 203 231 204 221 279 327 342 2 48 81 26 325 313 320 290 297 318 290 279 284 276 245 223 219 215 212 206 201 200 199 199 200 200 203 207 210 211 210 210 214 216 213 210 205 199 197 193 188 183 181 182 181 174 164 157 162 177 187 190 189 179 143 103 87 79 75 67 57 49 36 338 254
262 270 276 177 190 163 171 228 200 171 214 310 249 200 199 202 207 238 324 17 26 343 335 46 16 294 315 319 271 293 342 298 289 294 275 266 249 220 215 214 210 206 204 203 203 202 204 208 210 210 210 211 214 217 219 218 211 204 202 199 192 190 187 186 188 185 181 176 171 172 186 198 202 193 189 171 121 95 81 78 70 62 58 57 60 56
263 296 333 239 231 162 172 239 230 170 138 315 249 202 183 158 144 169 153 86 96 260 292 48 150 251 319 319 263 288 326 297 299 304 276 273 268 236 218 216 212 209 207 205 205 205 207 210 211 211 213 215 218 218 218 216 211 204 203 200 194 193 192 191 193 190 187 185 181 180 192 210 221 196 192 189 146 122 94 84 79 72 65 63 69 75
269 319 346 360 137 138 169 238 223 151 123 238 236 163 151 148 155 171 162 168 208 238 310 16 114 206 304 277 266 308 320 296 294 289 276 269 267 257 237 224 216 212 208 205 206 207 210 213 214 216 218 219 218 216 216 215 211 206 203 201 197 196 196 196 197 195 192 192 189 186 199 219 225 208 208 215 183 155 132 102 91 85 80 73 74 78
263 295 284 217 110 144 197 219 192 145 134 240 212 146 160 179 163 151 136 170 241 80 298 324 53 177 279 274 293 342 300 280 278 276 273 268 269 267 252 233 220 215 210 207 208 210 213 216 218 222 222 221 218 216 218 217 212 207 203 202 200 199 200 200 202 199 195 196 197 194 201 214 215 210 217 227 221 200 185 155 122 110 102 91 86 85
244 237 229 160 137 203 227 220 171 159 187 233 163 118 52 52 91 100 115 142 56 72 239 270 241 174 272 278 297 356 274 258 265 269 268 275 280 280 271 247 223 214 210 208 211 213 215 218 221 224 223 221 218 217 217 216 212 208 204 203 203 203 204 205 206 202 198 199 203 204 205 210 213 212 218 226 228 224 220 219 209 184 152 119 110 105
280 263 210 162 191 213 215 204 167 174 184 140 101 73 29 24 42 46 75 108 72 309 248 248 203 148 297 280 252 215 225 230 260 285 288 294 299 302 293 262 223 211 208 207 211 214 216 218 220 221 221 219 217 215 215 214 213 211 207 206 207 207 207 208 209 205 201 202 205 208 209 212 216 217 221 226 226 227 229 231 232 222 207 179 149 136
326 304 217 236 234 201 167 199 51 51 72 85 77 67 45 340 7 19 357 46 113 260 260 244 194 125 119 266 247 246 265 253 243 274 288 299 310 319 315 280 226 211 209 206 208 212 214 215 217 218 220 219 217 216 215 214 213 212 212 211 210 210 209 211 211 208 206 207 208 210 212 216 220 222 228 231 228 229 233 237 241 235 222 213 201 178
322 248 263 303 258 171 139 256 338 4 31 81 97 81 76 334 3 351 302 316 216 250 254 219 181 122 219 251 259 264 278 277 257 273 298 317 331 344 346 318 247 215 208 205 206 209 212 213 217 219 219 220 221 220 218 216 215 214 215 216 214 212 212 212 213 211 208 210 211 212 213 216 222 227 231 234 230 229 233 240 244 242 236 231 227 211
329 302 323 342 280 190 150 159 244 303 44 139 149 122 125 122 63 284 270 279 261 266 272 233 207 283 275 270 276 267 285 315 332 3 34 36 28 26 27 19 326 216 210 206 205 207 210 213 217 219 220 222 225 225 221 219 218 217 216 218 218 216 214 214 215 214 211 211 214 216 215 215 221 228 231 232 229 228 232 239 245 247 245 241 239 230
121 307 290 197 270 249 135 155 167 162 166 200 179 130 141 153 156 231 229 206 253 273 298 292 230 190 202 259 289 285 337 12 25 56 62 57 50 48 46 47 58 101 204 212 210 208 211 214 217 219 220 224 227 227 225 222 220 220 219 219 220 218 216 216 217 216 214 213 215 218 218 218 221 226 230 231 229 229 233 240 247 249 247 247 247 240
148 254 256 258 290 102 119 188 161 124 97 256 166 109 151 182 158 184 198 178 189 249 301 292 234 219 200 248 316 349 41 35 35 55 59 57 56 55 48 43 50 62 83 189 219 218 217 217 217 219 221 225 228 229 229 225 222 222 222 221 222 221 219 218 219 218 216 215 217 219 220 220 221 225 228 228 227 229 232 239 249 253 253 255 254 251
136 265 281 324 349 46 149 235 164 132 156 245 106 162 232 185 129 121 262 288 85 96 276 265 248 289 341 9 337 23 52 28 21 43 50 49 53 56 50 43 45 52 61 67 69 225 228 225 221 221 222 225 228 229 231 229 227 227 226 224 223 223 222 221 221 221 219 217 218 221 222 223 224 226 229 229 227 228 232 238 245 250 253 254 254 256
149 255 290 354 262 296 68 76 34 19 117 118 158 223 239 44 86 114 168 360 46 186 274 282 216 275 348 268 320 31 56 32 19 34 42 43 45 46 45 46 45 45 51 56 56 54 42 255 234 229 226 226 226 229 231 230 229 229 229 227 226 225 224 223 223 223 222 220 221 224 226 226 227 231 233 232 229 229 231 236 241 244 247 249 251 254
127 232 289 276 198 292 19 80 14 342 21 101 156 176 116 103 316 6 107 161 262 235 283 304 268 247 211 217 254 74 93 78 53 46 48 49 46 41 40 45 45 43 44 45 48 51 50 44 12 257 239 234 232 231 232 231 229 229 229 230 229 229 229 227 225 225 224 223 224 227 229 230 231 234 235 232 228 228 230 233 238 242 244 245 247 250
65 145 275 283 235 303 3 56 212 318 351 23 59 41 40 134 163 144 115 167 206 222 253 302 309 270 233 207 157 153 167 144 107 81 78 79 65 54 48 47 45 40 37 36 37 38 40 44 40 23 317 260 248 241 237 234 233 232 231 230 231 231 231 230 228 227 226 226 225 228 231 233 234 236 237 233 228 228 229 231 235 239 241 242 244 246
43 104 249 295 318 315 345 222 174 173 305 15 26 14 5 48 111 64 36 126 140 179 196 253 283 269 258 213 153 159 172 158 134 119 125 122 96 76 62 58 51 42 36 32 29 25 23 30 34 29 18 351 294 262 250 243 239 236 234 232 231 231 231 232 231 230 229 228 227 228 231 233 235 237 237 234 231 230 228 228 231 234 236 238 240 242
68 123 198 291 323 271 248 247 202 183 165 145 153 174 154 149 108 84 302 309 92 165 179 163 241 272 272 288 166 172 176 173 142 126 134 116 91 81 77 75 67 57 49 37 30 23 13 14 22 24 19 9 350 315 282 264 253 246 242 239 236 234 234 234 234 233 232 231 231 232 233 234 234 237 237 234 232 231 228 226 228 229 230 232 235 238
140 102 121 255 261 232 250 262 265 274 117 115 118 126 122 118 108 128 210 260 294 243 164 130 180 272 274 313 321 269 212 181 125 83 76 72 68 74 83 85 80 74 68 57 45 36 22 12 13 19 24 20 7 352 322 294 279 266 255 248 243 239 238 237 236 235 235 235 235 235 236 237 236 237 237 235 232 232 229 227 226 225 226 228 229 232
86 72 60 300 292 305 299 287 298 345 82 91 41 45 92 111 121 145 175 170 196 245 153 126 235 265 279 316 327 310 318 356 21 25 39 55 61 71 81 83 81 77 74 68 59 49 37 24 14 14 20 24 19 5 332 303 293 284 273 261 251 245 242 240 239 239 238 238 238 237 237 238 238 238 238 235 233 233 232 229 227 225 225 225 227 229
345 339 89 33 335 335 339 346 344 335 36 98 88 40 75 100 96 86 87 93 186 234 166 162 232 245 254 319 339 344 349 350 1 17 39 59 65 72 78 78 78 75 72 68 61 52 44 36 29 24 20 19 17 5 346 322 300 286 278 271 264 256 249 244 242 241 240 240 241 239 237 237 237 238 238 236 233 234 234 232 229 227 225 224 226 229
255 196 146 138 207 232 269 276 261 279 319 94 133 107 55 77 95 84 39 92 186 251 165 159 220 257 276 337 334 331 355 351 356 23 49 59 63 69 72 72 73 71 70 67 60 51 43 37 32 25 18 16 13 3 354 345 329 308 287 275 269 264 259 252 247 243 240 240 243 243 239 236 235 236 237 236 233 234 234 232 230 227 224 225 228 230
136 107 185 166 187 206 206 226 226 187 210 263 224 149 151 132 113 113 105 142 194 222 241 206 201 254 281 308 312 319 6 2 345 24 42 46 50 56 60 61 62 61 59 57 51 40 29 22 17 13 8 2 358 354 348 343 340 334 317 297 280 268 262 257 251 246 241 241 245 248 244 239 236 234 236 236 234 234 234 231 230 228 225 227 229 231
104 1 287 176 209 226 211 228 237 190 202 236 236 185 177 183 152 132 158 211 176 161 266 248 189 215 255 260 277 293 329 145 220 38 39 40 43 47 49 45 43 43 37 34 32 25 16 8 1 359 355 349 345 340 337 335 333 331 326 321 310 287 270 260 252 248 245 243 245 249 248 245 239 233 232 234 231 229 229 229 229 228 227 228 229 232
116 291 261 202 258 255 230 240 246 229 223 222 217 208 190 188 188 184 208 208 162 181 248 241 188 207 237 241 254 259 227 193 179 87 48 38 40 44 44 34 29 26 18 14 14 10 4 356 350 346 341 338 335 330 328 328 326 324 321 317 316 310 293 274 260 253 249 247 248 249 248 246 241 235 232 231 227 221 220 222 223 225 225 224 226 230
109 277 273 263 299 289 273 263 250 243 248 244 235 223 201 194 201 206 220 205 183 213 241 231 209 230 237 222 235 262 250 232 254 35 30 26 26 30 30 24 23 21 12 5 2 357 351 345 339 335 331 328 328 327 326 324 321 320 317 312 307 301 297 291 277 265 257 253 252 251 249 246 242 237 232 228 221 215 211 212 213 214 217 220 224 227
55 279 302 29 349 296 292 294 267 237 235 244 252 239 205 197 211 224 233 201 193 235 255 248 232 254 252 223 231 301 336 360 12 11 14 15 11 12 19 18 16 12 3 356 349 343 340 336 331 327 324 323 323 324 323 320 316 314 311 306 299 294 289 284 281 277 269 262 258 254 251 248 243 238 233 226 217 209 206 205 204 205 210 215 219 223
62 282 325 33 320 276 283 297 290 285 269 256 243 216 196 196 204 215 217 197 187 202 225 228 233 247 242 216 226 314 355 18 356 335 344 354 356 16 20 15 7 356 349 342 335 331 329 326 325 324 322 319 318 318 318 316 312 310 309 303 293 288 285 280 276 275 274 271 265 258 253 248 243 237 230 220 210 205 204 202 199 199 204 210 213 218
165 219 267 181 264 270 262 265 294 348 311 270 236 193 193 205 208 203 223 226 200 164 155 197 225 219 188 163 173 248 289 309 284 277 300 302 171 61 8 354 346 339 335 331 327 323 321 318 318 317 317 317 315 313 312 312 309 307 305 303 296 286 281 280 276 271 270 272 268 260 254 249 243 236 224 212 208 208 203 197 196 199 204 207 210 217
183 197 223 194 223 263 264 278 24 340 254 253 231 185 190 200 199 193 208 219 204 167 150 180 193 175 158 154 165 194 218 251 268 270 264 219 190 335 339 334 331 327 323 321 318 315 313 312 311 310 311 311 310 309 307 305 305 303 299 298 297 289 281 278 275 270 267 266 266 261 255 251 245 235 221 211 210 210 202 197 200 203 203 205 210 219
240 212 225 194 204 254 272 96 244 252 241 246 269 200 196 186 167 166 207 224 195 178 157 142 146 163 178 183 180 184 202 263 295 277 231 198 202 308 328 329 328 325 320 318 315 311 310 308 307 307 307 306 305 305 304 303 303 300 295 294 294 290 284 278 273 268 264 262 262 258 252 249 243 230 218 212 208 203 198 198 198 196 196 203 214 224
226 212 214 195 192 247 191 165 212 249 282 302 313 344 360 58 108 102 304 278 231 198 175 161 179 195 193 197 195 196 229 270 288 270 225 207 234 304 319 323 326 324 321 319 315 311 309 307 306 307 306 304 303 302 302 303 304 301 295 291 291 289 284 277 271 266 263 262 258 252 246 242 234 222 211 206 201 195 193 193 189 187 196 209 220 228
195 169 191 222 212 192 187 214 244 305 316 299 297 358 26 266 217 192 246 271 267 227 161 154 198 238 226 222 226 227 239 259 279 264 225 220 258 297 309 315 320 320 319 318 315 313 311 307 306 307 305 304 303 302 302 302 302 302 298 292 289 287 282 274 268 262 261 261 255 249 243 238 232 222 207 196 192 189 186 183 182 192 207 217 225 231
190 179 183 200 216 171 195 260 290 295 274 259 261 286 303 296 269 221 175 290 285 259 173 165 207 247 237 238 243 233 233 289 283 263 250 258 282 299 307 312 315 315 314 313 312 311 310 307 305 304 303 303 302 301 302 301 300 300 297 293 289 285 279 271 266 262 260 259 255 248 243 239 233 221 202 188 185 187 185 182 188 205 217 222 228 234
356 172 146 165 239 147 171 232 243 228 244 245 249 279 329 345 326 236 115 320 269 248 232 216 236 249 238 242 244 218 226 330 273 276 301 306 302 303 306 309 311 311 310 309 309 308 306 304 303 301 302 302 301 300 300 299 298 296 294 292 289 283 277 269 264 263 260 257 254 248 242 236 224 211 197 187 185 188 188 187 193 207 216 220 229 237
11 16 71 165 234 228 182 231 243 225 248 249 252 288 339 5 11 47 135 265 268 285 286 245 242 253 252 256 253 206 220 275 274 293 307 309 307 306 307 307 309 309 308 308 308 307 304 303 303 303 302 301 300 300 299 297 296 292 290 289 286 279 274 268 265 266 263 256 251 244 237 225 211 204 199 190 185 185 184 185 191 201 211 218 226 230
360 346 5 164 219 235 215 241 270 260 249 248 288 328 350 16 40 90 203 249 280 303 314 297 270 272 279 282 277 262 275 287 294 301 305 306 306 306 306 306 306 306 306 307 307 307 307 307 307 306 303 302 301 301 299 296 291 287 285 285 281 276 274 270 269 271 263 251 243 236 227 216 206 199 191 181 180 180 179 184 192 199 205 209 212 218
350 335 331 15 213 240 189 204 283 285 279 279 302 353 13 38 123 212 271 293 299 306 321 319 299 291 294 294 291 286 291 298 300 301 303 304 303 303 304 304 303 303 304 306 307 309 310 310 310 308 306 305 303 302 299 291 283 280 281 280 277 276 277 273 272 272 261 245 235 225 215 207 200 191 181 176 175 175 175 180 185 186 188 190 194 208
272 311 300 261 235 291 68 44 302 257 308 328 333 14 38 57 272 289 298 302 304 309 318 313 302 299 297 294 293 292 294 298 298 297 300 302 302 302 302 301 303 303 305 306 309 311 312 312 311 310 308 306 303 300 295 283 274 275 277 275 275 280 280 275 275 272 255 240 231 219 207 199 189 178 173 172 169 167 170 170 165 159 146 125 124 238
228 180 249 265 267 71 74 237 200 205 257 329 51 308 299 295 295 296 295 298 304 312 315 306 300 300 295 289 289 292 293 295 295 297 300 302 303 304 302 301 303 304 305 309 311 312 313 312 310 308 306 303 300 296 289 279 273 274 275 275 278 281 278 276 276 266 245 233 224 207 191 182 174 167 164 162 160 161 161 154 138 123 106 95 112 262
251 214 209 236 243 216 214 233 250 272 285 286 283 289 295 298 293 283 278 293 302 303 302 297 295 296 292 288 288 291 292 292 292 294 297 299 301 302 301 300 301 302 305 309 310 311 312 311 308 304 301 299 296 293 287 281 277 276 277 278 279 276 275 274 267 250 231 219 206 188 173 165 161 159 157 154 154 152 144 130 112 103 111 140 206 269
279 283 238 189 259 296 273 246 256 276 289 302 307 305 305 301 282 257 274 295 296 296 297 295 294 294 293 290 289 289 289 289 289 291 295 297 298 299 299 298 298 301 303 305 307 310 311 307 302 298 297 296 296 292 286 281 278 276 278 280 276 271 270 264 246 225 207 196 184 171 161 156 153 150 146 143 139 132 124 117 106 101 121 172 232 325
298 325 9 224 275 306 292 258 281 295 298 304 306 305 305 291 260 256 287 294 294 299 300 297 296 295 293 291 289 287 287 287 289 291 293 296 297 298 298 298 297 298 300 303 306 309 307 301 297 296 296 297 297 291 284 282 280 275 273 273 269 264 256 238 217 199 185 175 165 155 151 149 144 140 138 135 132 130 131 128 117 115 139 167 342 354
297 354 338 247 233 241 248 271 290 292 292 295 294 295 300 286 264 273 287 286 289 296 296 294 294 293 291 292 291 289 288 289 289 291 293 296 297 297 298 298 298 299 301 303 306 306 301 298 297 297 297 296 293 288 285 285 283 275 266 260 256 249 228 205 193 184 171 158 149 145 145 141 136 135 135 134 135 139 142 135 121 113 98 65 43 23
265 290 284 249 258 275 271 274 281 286 291 293 286 287 296 293 286 290 290 287 290 294 293 293 294 294 293 294 294 293 292 291 292 295 296 295 294 296 298 299 300 301 302 304 305 302 299 298 298 297 296 291 286 289 289 283 275 265 250 240 237 224 198 179 170 164 155 145 140 142 140 136 135 136 136 138 143 145 140 124 99 79 68 63 57 40
255 264 259 259 285 282 264 270 276 277 284 287 287 290 294 295 296 296 295 296 298 298 298 298 297 296 294 294 296 298 297 295 298 301 299 295 295 297 299 301 301 301 301 303 303 300 299 300 298 294 290 285 288 295 288 257 233 220 201 193 189 176 160 150 144 142 140 138 139 142 141 139 140 141 143 150 155 149 135 109 78 75 80 76 58 38
227 235 245 245 255 258 266 277 282 278 271 282 290 293 294 298 300 296 297 301 303 303 303 301 299 299 298 297 299 300 296 296 300 301 300 299 299 299 299 299 299 299 301 302 301 300 301 300 294 289 288 293 299 292 251 203 180 158 150 149 148 146 142 137 133 134 137 140 143 144 142 141 145 149 154 162 162 149 124 92 81 90 93 77 56 40